Total_Precipitation_Accumulation
0.51 0.85 1.15 1.02 1.05 1.10 0.93 0.95 1.02 0.99 0.84 0.95 1.04 1.00 1.06 1.05 1.02 0.86 0.76 0.68 0.68 0.67 0.68 0.64 0.59 0.63 0.62 0.58 0.56 0.62 0.75 0.90 1.04 1.16 1.28 1.51 1.67 1.76 1.75 1.74 1.80 1.71 1.50 1.57
0.72 0.84 0.67 0.65 0.72 0.83 0.86 0.92 0.97 0.90 0.74 0.84 0.90 0.93 0.97 0.92 0.85 0.69 0.62 0.59 0.54 0.52 0.56 0.54 0.45 0.43 0.46 0.49 0.52 0.57 0.71 0.94 1.15 1.35 1.51 1.68 2.00 2.16 2.15 2.19 2.11 2.04 1.91 1.92
0.67 0.61 0.49 0.57 0.67 0.77 0.80 0.79 0.83 0.83 0.85 0.85 0.85 1.00 1.02 0.96 0.80 0.63 0.53 0.48 0.45 0.40 0.44 0.45 0.40 0.35 0.32 0.35 0.42 0.50 0.61 0.83 1.14 1.43 1.65 1.83 2.06 2.31 2.41 2.29 2.24 2.24 2.29 2.32
0.59 0.49 0.46 0.56 0.59 0.66 0.89 0.57 0.55 0.61 0.78 1.00 0.83 1.15 1.01 0.93 0.82 0.66 0.57 0.50 0.45 0.42 0.41 0.39 0.37 0.37 0.33 0.35 0.41 0.50 0.61 0.75 0.97 1.23 1.54 1.80 2.07 2.37 2.42 2.36 2.34 2.37 2.44 2.48
0.57 0.50 0.51 0.59 0.52 0.53 0.68 0.44 0.46 0.58 0.63 0.70 0.63 0.89 0.93 0.76 0.84 0.74 0.65 0.56 0.48 0.45 0.44 0.39 0.36 0.36 0.39 0.42 0.46 0.58 0.70 0.80 0.96 1.21 1.54 1.84 2.03 2.22 2.40 2.40 2.29 2.21 2.28 2.25
0.52 0.44 0.45 0.47 0.40 0.42 0.50 0.50 0.52 0.57 0.65 0.78 0.50 0.67 0.87 0.78 0.75 0.72 0.65 0.60 0.50 0.42 0.44 0.45 0.48 0.48 0.47 0.51 0.61 0.73 0.83 0.98 1.11 1.20 1.32 1.47 1.67 1.96 2.12 2.25 2.25 2.23 2.23 2.11
0.51 0.43 0.33 0.31 0.44 0.45 0.50 0.76 1.01 0.99 0.97 0.83 0.41 0.58 0.78 0.64 0.56 0.58 0.57 0.57 0.54 0.51 0.54 0.61 0.68 0.65 0.62 0.64 0.78 0.88 0.96 1.01 1.06 1.03 1.05 1.17 1.33 1.56 1.71 1.83 2.00 2.06 2.09 2.07
0.53 0.48 0.34 0.27 0.35 0.49 0.49 0.65 1.03 1.12 0.96 0.77 0.60 0.80 0.82 0.57 0.49 0.50 0.52 0.50 0.51 0.58 0.65 0.80 0.90 0.92 0.86 0.86 0.89 0.90 0.94 0.89 0.89 0.92 0.95 1.02 1.08 1.23 1.35 1.43 1.58 1.70 1.69 1.68
0.51 0.45 0.24 0.21 0.20 0.31 0.44 0.41 0.43 0.65 0.66 0.76 0.73 0.83 0.78 0.51 0.44 0.47 0.52 0.53 0.55 0.68 0.80 0.97 1.15 1.18 1.09 1.02 0.96 0.96 1.01 0.95 0.87 0.90 0.98 1.00 1.03 1.03 1.04 1.10 1.10 1.18 1.26 1.27
0.41 0.43 0.27 0.19 0.20 0.23 0.30 0.34 0.43 0.73 0.98 1.04 0.88 0.92 0.96 0.70 0.53 0.54 0.62 0.74 0.83 0.97 1.01 1.15 1.28 1.28 1.24 1.26 1.21 1.05 1.03 1.05 0.98 1.05 1.07 0.99 0.95 0.91 0.93 0.98 1.01 1.02 1.10 1.18
0.35 0.46 0.34 0.25 0.28 0.29 0.28 0.34 0.50 0.76 0.85 1.16 1.33 1.29 0.91 0.71 0.69 0.68 0.75 1.03 1.11 1.17 1.23 1.25 1.33 1.31 1.21 1.20 1.17 1.15 1.10 1.07 1.08 1.09 1.10 0.97 0.95 0.96 0.96 0.94 0.97 1.04 1.11 1.21
0.40 0.52 0.44 0.26 0.23 0.27 0.39 0.52 0.69 1.10 1.09 1.02 1.40 1.47 0.93 0.77 0.79 0.81 0.81 0.85 0.93 1.14 1.22 1.22 1.29 1.23 1.11 1.09 0.99 1.02 1.09 1.09 1.17 1.18 1.09 1.01 1.04 1.06 1.09 1.04 1.00 1.03 1.07 1.06
0.51 0.69 0.71 0.54 0.52 0.48 0.52 0.60 0.74 0.95 1.16 1.20 1.36 1.37 0.96 0.73 0.72 0.78 0.84 0.83 0.89 0.99 1.00 0.94 0.99 1.06 1.02 1.00 0.94 1.02 1.09 1.14 1.16 1.19 1.19 1.07 0.97 0.99 1.02 1.01 0.94 0.90 0.92 0.95
0.49 0.65 0.78 0.80 0.72 0.63 0.57 0.50 0.57 0.83 1.14 1.16 1.20 1.13 0.85 0.72 0.70 0.72 0.77 0.82 0.80 0.78 0.78 0.72 0.70 0.77 0.79 0.81 0.88 0.95 1.09 1.24 1.26 1.25 1.20 1.13 1.06 1.08 1.00 0.92 0.89 0.87 0.82 0.77
0.43 0.44 0.39 0.33 0.31 0.35 0.42 0.43 0.53 0.68 0.85 1.09 0.98 0.77 0.65 0.63 0.59 0.61 0.67 0.60 0.56 0.55 0.56 0.57 0.56 0.57 0.58 0.62 0.70 0.77 0.89 1.10 1.23 1.31 1.30 1.21 1.14 1.05 0.97 0.87 0.79 0.80 0.70 0.67
0.46 0.40 0.24 0.19 0.19 0.24 0.35 0.47 0.61 0.67 0.74 0.76 0.66 0.62 0.48 0.46 0.41 0.42 0.48 0.48 0.48 0.44 0.39 0.40 0.45 0.47 0.51 0.54 0.61 0.62 0.73 0.90 1.03 1.11 1.14 1.21 1.18 1.01 0.90 0.80 0.71 0.69 0.67 0.65
0.33 0.33 0.28 0.21 0.17 0.28 0.49 0.58 0.65 0.65 0.60 0.52 0.50 0.44 0.32 0.29 0.26 0.26 0.31 0.36 0.42 0.41 0.35 0.34 0.34 0.38 0.46 0.54 0.57 0.61 0.72 0.85 0.89 0.95 0.97 1.02 1.03 0.88 0.81 0.70 0.63 0.62 0.62 0.63
0.31 0.35 0.42 0.32 0.27 0.50 0.69 0.56 0.50 0.56 0.46 0.32 0.30 0.29 0.26 0.21 0.18 0.16 0.17 0.19 0.23 0.26 0.27 0.32 0.30 0.30 0.34 0.41 0.52 0.65 0.70 0.71 0.72 0.78 0.79 0.80 0.82 0.78 0.71 0.61 0.58 0.59 0.62 0.66
0.31 0.42 0.53 0.48 0.45 0.55 0.62 0.43 0.41 0.49 0.47 0.27 0.21 0.19 0.16 0.15 0.14 0.12 0.12 0.13 0.14 0.14 0.18 0.22 0.23 0.23 0.24 0.27 0.29 0.35 0.41 0.45 0.48 0.57 0.64 0.68 0.70 0.68 0.63 0.58 0.65 0.69 0.67 0.67
0.43 0.51 0.59 0.56 0.64 0.71 0.48 0.21 0.21 0.36 0.56 0.25 0.14 0.12 0.11 0.12 0.14 0.13 0.12 0.13 0.12 0.10 0.10 0.14 0.18 0.17 0.16 0.17 0.18 0.21 0.26 0.30 0.34 0.40 0.46 0.55 0.61 0.64 0.66 0.77 0.84 0.85 0.81 0.74
0.36 0.44 0.55 0.61 0.81 0.75 0.44 0.20 0.22 0.42 0.57 0.29 0.14 0.11 0.13 0.13 0.13 0.11 0.11 0.12 0.11 0.09 0.08 0.10 0.13 0.14 0.15 0.16 0.16 0.18 0.22 0.22 0.25 0.24 0.31 0.43 0.60 0.68 0.77 0.90 0.93 0.90 0.83 0.72
0.38 0.51 0.62 0.75 0.97 0.99 0.50 0.29 0.35 0.34 0.23 0.18 0.12 0.11 0.11 0.11 0.11 0.11 0.10 0.09 0.09 0.10 0.09 0.09 0.10 0.11 0.14 0.16 0.15 0.16 0.24 0.25 0.29 0.28 0.29 0.37 0.50 0.64 0.79 0.90 0.89 0.87 0.87 0.79
0.33 0.59 0.84 0.83 0.83 0.65 0.39 0.28 0.23 0.17 0.17 0.11 0.10 0.11 0.12 0.10 0.10 0.10 0.10 0.09 0.08 0.09 0.08 0.09 0.10 0.11 0.12 0.13 0.16 0.17 0.20 0.24 0.26 0.29 0.25 0.27 0.36 0.50 0.68 0.77 0.79 0.80 0.80 0.77
0.20 0.28 0.44 0.43 0.32 0.24 0.21 0.18 0.14 0.10 0.11 0.08 0.07 0.07 0.11 0.13 0.13 0.10 0.10 0.10 0.10 0.10 0.08 0.08 0.10 0.11 0.12 0.13 0.16 0.19 0.23 0.24 0.24 0.26 0.27 0.25 0.25 0.31 0.40 0.48 0.54 0.62 0.67 0.67
0.18 0.23 0.33 0.32 0.19 0.14 0.15 0.15 0.12 0.10 0.09 0.08 0.07 0.07 0.08 0.11 0.12 0.09 0.10 0.09 0.09 0.10 0.10 0.09 0.11 0.13 0.13 0.14 0.15 0.17 0.21 0.24 0.25 0.26 0.28 0.29 0.30 0.33 0.35 0.37 0.41 0.45 0.48 0.58
0.12 0.19 0.28 0.30 0.20 0.15 0.13 0.13 0.14 0.12 0.10 0.09 0.09 0.10 0.11 0.12 0.13 0.12 0.10 0.10 0.09 0.10 0.11 0.12 0.14 0.15 0.15 0.15 0.16 0.16 0.18 0.20 0.22 0.24 0.24 0.24 0.25 0.29 0.30 0.32 0.36 0.39 0.40 0.46